User: anonymous   Login
Location: Unspecified
(0.0000°N, 0.0000°E)
Time: 09:09:27
(UTC+00:00)
Language:

SCD-1 - Orbit

View from above orbital plane
View from above orbital plane
View from above satellite
View from above satellite

Ground track
Ground track

The orbit data is extracted from the following two-line orbital elements,

1 22490U 93009B   18051.90911541 +.00000219 +00000-0 +10109-4 0  9990
2 22490 024.9684 212.1093 0043206 080.5279 054.0224 14.44513816321321
Epoch (UTC): 20 February 2018 21:49:07
Eccentricity: 0.0043206
inclination: 24.9684°
perigee height: 713 km
apogee height: 774 km
right ascension of ascending node: 212.1093°
argument of perigee: 80.5279°
revolutions per day: 14.44513816
mean anomaly at epoch: 54.0224°
orbit number at epoch: 32132

The dashed part of the orbit path shows where the satellite is in the earth's shadow,  

DLR